Location: Saluda
(35.2377°N, 82.3468°W)
Time: 15:39:12
(UTC+00:00)

Explorer 11/Cluster Stage 4 - Pass Details

Date: 09 October 2022
Orbit: 466 x 1247 km, 28.8° (Epoch: 08 December)

Event Time Altitude Azimuth Distance (km) Brightness Sun altitude
Rises 14:07:36 0° 238° (WSW) 3,865 9.9 29.1°
Reaches altitude 10° 14:10:23 10° 231° (SW) 3,001 9.5 29.6°
Maximum altitude 14:17:28 42° 164° (SSE) 1,670 9.4 30.8°
Drops below altitude 10° 14:25:03 10° 97° (E) 3,214 10.7 32.0°
Sets 14:28:08 0° 91° (E) 4,162 11.0 32.5°
